Airfield :
LOGIN :

Register | Disclaimer

   EN    FR    IT 

 










Legend :    VFR   Marginal VFR   IFR   Intensive IFR   Very Intensive IFR
Visi :
Ceiling :
>= 8 km
>= 3000ft
5 to 8 km
1000 to 3000 ft
1500m to 5 km
500 to 1000 ft
800 to 1500m
200 to 500 ft
< 800m
< 200 ft
Symbols :   Thunderstorms  Fog  Heavy snow  Heavy precipitations  Wind > 20 kt
SIGMETs :     Misc.  Thunderstorms  Icing  Turbulence  Mountain Waves  Volcanic Ashes







- Airport Elevation : 70 ft
- IATA code : WBG


ETNS - Schleswig

CURRENT METAR :
  • 211720Z AUTO 05003KT //// // ////// 15/14 Q1020 ///

EXPIRED METARs :
  • 211620Z AUTO 03002KT //// // ////// 16/14 Q1020 ///
  • 211520Z AUTO VRB03KT //// // ////// 17/13 Q1020 ///
  • 211500Z 28003KT 9000 FEW022 BKN050 17/13 Q1020 BLU FCST CANCEL
  • 211420Z 28007KT 9999 FEW022 BKN050 18/12 Q1020 BLU BLU

TAF AMD TAF ETNS
Valid from the 21 at 15:00 until the 21 at 23:00 UTC


211510Z 2115/2123 21005KT 9999 NSW BKN060
BECMG 2118/2120 13003KT 4000 BR SCT060 CANCEL 1511 BY ETGL
No reported NOTAMs for that airfield.



MET'MAP, your aeronautical weather chart ! - Copyright ORBIFLY December 2007 - Disclaimer

ORBIFLY MET'MAP TEAM :

Programming & Development : Alexandra Zaïnal
Concept & Development : Baudouin d'Aumeries
Co-Development & Prog : Marc-Olivier Méhu
Technical & hardware support : Manuel Goepfert

Contact : metmap@orbifly.com




SOURCES & CREDITS :

   NOAA